# Tabular Observed and Forecast Hydrograph Information
#
# Location: Santa Clara River - Piru (SCPC1)
#
# File Generation Time: 09/02/2026 at 07:45 AM PDT
# Data Interval: 1 Hour
#
# Most Recent Date & Time of Maximum Observed: 08/30/2026 at 05:00 AM PDT
# Maximum Observed Stage: 1.39 Feet
# Maximum Observed Flow: 31 cfs
#
# Earliest Date & Time of Maximum Forecast: 09/06/2026 at 07:00 PM PDT
# Maximum Forecast Stage: 2.31 Feet
# Maximum Forecast Flow: 122 cfs
#
# OBSERVED
#
# Date & Time (Local) Stage (Feet) Flow (cfs) Trend Observed Status
# ---------------------------------------------------------------------------------
08/28/2026 07 AM PDT 1.34 28 Normal
08/28/2026 08 AM PDT 1.34 28 0 Normal
08/28/2026 09 AM PDT 1.33 27 - Normal
08/28/2026 10 AM PDT 1.33 27 0 Normal
08/28/2026 11 AM PDT 1.31 26 - Normal
08/28/2026 12 PM PDT 1.30 25 - Normal
08/28/2026 01 PM PDT 1.29 24 - Normal
08/28/2026 02 PM PDT 1.28 24 - Normal
08/28/2026 03 PM PDT 1.30 25 + Normal
08/28/2026 04 PM PDT 1.30 25 0 Normal
08/28/2026 05 PM PDT 1.30 25 0 Normal
08/28/2026 06 PM PDT 1.31 26 + Normal
08/28/2026 07 PM PDT 1.32 26 + Normal
08/28/2026 08 PM PDT 1.31 26 - Normal
08/28/2026 09 PM PDT 1.30 25 - Normal
08/28/2026 10 PM PDT 1.32 26 + Normal
08/28/2026 11 PM PDT 1.32 26 0 Normal
08/29/2026 12 AM PDT 1.32 26 0 Normal
08/29/2026 01 AM PDT 1.33 27 + Normal
08/29/2026 02 AM PDT 1.33 27 0 Normal
08/29/2026 03 AM PDT 1.34 28 + Normal
08/29/2026 04 AM PDT 1.34 28 0 Normal
08/29/2026 05 AM PDT 1.34 28 0 Normal
08/29/2026 06 AM PDT 1.33 27 - Normal
08/29/2026 07 AM PDT 1.32 26 - Normal
08/29/2026 08 AM PDT 1.32 26 0 Normal
08/29/2026 09 AM PDT 1.34 28 + Normal
08/29/2026 10 AM PDT 1.35 28 + Normal
08/29/2026 11 AM PDT 1.33 27 - Normal
08/29/2026 12 PM PDT 1.33 27 0 Normal
08/29/2026 01 PM PDT 1.32 26 - Normal
08/29/2026 02 PM PDT 1.31 26 - Normal
08/29/2026 03 PM PDT 1.31 26 0 Normal
08/29/2026 04 PM PDT 1.30 25 - Normal
08/29/2026 05 PM PDT 1.29 24 - Normal
08/29/2026 06 PM PDT 1.29 24 0 Normal
08/29/2026 07 PM PDT 1.30 25 + Normal
08/29/2026 08 PM PDT 1.31 26 + Normal
08/29/2026 09 PM PDT 1.33 27 + Normal
08/29/2026 10 PM PDT 1.34 28 + Normal
08/29/2026 11 PM PDT 1.35 28 + Normal
08/30/2026 12 AM PDT 1.36 29 + Normal
08/30/2026 01 AM PDT 1.36 29 0 Normal
08/30/2026 02 AM PDT 1.38 30 + Normal
08/30/2026 03 AM PDT 1.37 29 - Normal
08/30/2026 04 AM PDT 1.39 31 + Normal
08/30/2026 05 AM PDT 1.39 31 0 Normal
08/30/2026 06 AM PDT 1.38 30 - Normal
08/30/2026 07 AM PDT 1.36 29 - Normal
08/30/2026 08 AM PDT 1.37 29 + Normal
08/30/2026 09 AM PDT 1.37 29 0 Normal
08/30/2026 10 AM PDT 1.37 29 0 Normal
08/30/2026 11 AM PDT 1.36 29 - Normal
08/30/2026 12 PM PDT 1.35 28 - Normal
08/30/2026 01 PM PDT 1.34 28 - Normal
08/30/2026 02 PM PDT 1.33 27 - Normal
08/30/2026 03 PM PDT 1.31 26 - Normal
08/30/2026 04 PM PDT 1.32 26 + Normal
08/30/2026 05 PM PDT 1.31 26 - Normal
08/30/2026 06 PM PDT 1.32 26 + Normal
08/30/2026 07 PM PDT 1.32 26 0 Normal
08/30/2026 08 PM PDT 1.32 26 0 Normal
08/30/2026 09 PM PDT 1.34 28 + Normal
08/30/2026 10 PM PDT 1.35 28 + Normal
08/30/2026 11 PM PDT 1.36 29 + Normal
08/31/2026 12 AM PDT 1.35 28 - Normal
08/31/2026 01 AM PDT 1.36 29 + Normal
08/31/2026 02 AM PDT 1.37 29 + Normal
08/31/2026 03 AM PDT 1.37 29 0 Normal
08/31/2026 04 AM PDT 1.38 30 + Normal
08/31/2026 05 AM PDT 1.38 30 0 Normal
08/31/2026 06 AM PDT 1.38 30 0 Normal
08/31/2026 07 AM PDT 1.37 29 - Normal
08/31/2026 08 AM PDT 1.38 30 + Normal
08/31/2026 09 AM PDT 1.38 30 0 Normal
08/31/2026 10 AM PDT 1.35 28 - Normal
08/31/2026 11 AM PDT 1.36 29 + Normal
08/31/2026 12 PM PDT 1.35 28 - Normal
08/31/2026 01 PM PDT 1.34 28 - Normal
08/31/2026 02 PM PDT 1.33 27 - Normal
08/31/2026 03 PM PDT 1.33 27 0 Normal
08/31/2026 04 PM PDT 1.32 26 - Normal
08/31/2026 05 PM PDT 1.32 26 0 Normal
08/31/2026 06 PM PDT 1.31 26 - Normal
08/31/2026 07 PM PDT 1.32 26 + Normal
08/31/2026 08 PM PDT 1.33 27 + Normal
08/31/2026 09 PM PDT 1.34 28 + Normal
08/31/2026 10 PM PDT 1.35 28 + Normal
08/31/2026 11 PM PDT 1.35 28 0 Normal
09/01/2026 12 AM PDT 1.35 28 0 Normal
09/01/2026 01 AM PDT 1.37 29 + Normal
09/01/2026 02 AM PDT 1.37 29 0 Normal
09/01/2026 03 AM PDT 1.38 30 + Normal
09/01/2026 04 AM PDT 1.38 30 0 Normal
09/01/2026 05 AM PDT 1.37 29 - Normal
09/01/2026 06 AM PDT 1.38 30 + Normal
09/01/2026 07 AM PDT 1.37 29 - Normal
09/01/2026 08 AM PDT 1.37 29 0 Normal
09/01/2026 09 AM PDT 1.35 28 - Normal
09/01/2026 10 AM PDT 1.34 28 - Normal
09/01/2026 11 AM PDT 1.34 28 0 Normal
09/01/2026 12 PM PDT 1.34 28 0 Normal
09/01/2026 01 PM PDT 1.33 27 - Normal
09/01/2026 02 PM PDT 1.32 26 - Normal
09/01/2026 03 PM PDT 1.31 26 - Normal
09/01/2026 04 PM PDT 1.31 26 0 Normal
09/01/2026 05 PM PDT 1.31 26 0 Normal
09/01/2026 06 PM PDT 1.31 26 0 Normal
09/01/2026 07 PM PDT 1.32 26 + Normal
09/01/2026 08 PM PDT 1.33 27 + Normal
09/01/2026 09 PM PDT 1.33 27 0 Normal
09/01/2026 10 PM PDT 1.33 27 0 Normal
09/01/2026 11 PM PDT 1.33 27 0 Normal
09/02/2026 12 AM PDT 1.34 28 + Normal
09/02/2026 01 AM PDT 1.34 28 0 Normal
09/02/2026 02 AM PDT 1.34 28 0 Normal
09/02/2026 03 AM PDT 1.34 28 0 Normal
09/02/2026 04 AM PDT 1.35 28 + Normal
09/02/2026 05 AM PDT 1.35 28 0 Normal
09/02/2026 06 AM PDT 1.35 28 0 Normal
09/02/2026 07 AM PDT 1.35 28 0 Normal
#
# FORECAST
#
# Date & Time (Local) Stage (Feet) Flow (cfs) Trend Forecast Status
# ---------------------------------------------------------------------------------
09/02/2026 08 AM PDT 1.35 28 Normal
09/02/2026 09 AM PDT 1.35 28 0 Normal
09/02/2026 10 AM PDT 1.35 28 0 Normal
09/02/2026 11 AM PDT 1.35 28 0 Normal
09/02/2026 12 PM PDT 1.35 28 0 Normal
09/02/2026 01 PM PDT 1.35 28 0 Normal
09/02/2026 02 PM PDT 1.35 28 0 Normal
09/02/2026 03 PM PDT 1.35 28 0 Normal
09/02/2026 04 PM PDT 1.35 28 0 Normal
09/02/2026 05 PM PDT 1.35 28 0 Normal
09/02/2026 06 PM PDT 1.34 28 - Normal
09/02/2026 07 PM PDT 1.34 28 0 Normal
09/02/2026 08 PM PDT 1.34 28 0 Normal
09/02/2026 09 PM PDT 1.34 28 0 Normal
09/02/2026 10 PM PDT 1.34 28 0 Normal
09/02/2026 11 PM PDT 1.34 28 0 Normal
09/03/2026 12 AM PDT 1.34 28 0 Normal
09/03/2026 01 AM PDT 1.34 28 0 Normal
09/03/2026 02 AM PDT 1.34 28 0 Normal
09/03/2026 03 AM PDT 1.34 28 0 Normal
09/03/2026 04 AM PDT 1.34 28 0 Normal
09/03/2026 05 AM PDT 1.34 28 0 Normal
09/03/2026 06 AM PDT 1.34 28 0 Normal
09/03/2026 07 AM PDT 1.34 28 0 Normal
09/03/2026 08 AM PDT 1.34 28 0 Normal
09/03/2026 09 AM PDT 1.34 28 0 Normal
09/03/2026 10 AM PDT 1.34 28 0 Normal
09/03/2026 11 AM PDT 1.34 28 0 Normal
09/03/2026 12 PM PDT 1.34 28 0 Normal
09/03/2026 01 PM PDT 1.34 28 0 Normal
09/03/2026 02 PM PDT 1.34 28 0 Normal
09/03/2026 03 PM PDT 1.34 28 0 Normal
09/03/2026 04 PM PDT 1.34 28 0 Normal
09/03/2026 05 PM PDT 1.34 28 0 Normal
09/03/2026 06 PM PDT 1.34 28 0 Normal
09/03/2026 07 PM PDT 1.34 28 0 Normal
09/03/2026 08 PM PDT 1.34 28 0 Normal
09/03/2026 09 PM PDT 1.34 28 0 Normal
09/03/2026 10 PM PDT 1.34 28 0 Normal
09/03/2026 11 PM PDT 1.34 28 0 Normal
09/04/2026 12 AM PDT 1.34 28 0 Normal
09/04/2026 01 AM PDT 1.34 28 0 Normal
09/04/2026 02 AM PDT 1.34 28 0 Normal
09/04/2026 03 AM PDT 1.34 28 0 Normal
09/04/2026 04 AM PDT 1.34 28 0 Normal
09/04/2026 05 AM PDT 1.34 28 0 Normal
09/04/2026 06 AM PDT 1.34 28 0 Normal
09/04/2026 07 AM PDT 1.34 28 0 Normal
09/04/2026 08 AM PDT 1.34 28 0 Normal
09/04/2026 09 AM PDT 1.34 28 0 Normal
09/04/2026 10 AM PDT 1.34 28 0 Normal
09/04/2026 11 AM PDT 1.34 28 0 Normal
09/04/2026 12 PM PDT 1.34 28 0 Normal
09/04/2026 01 PM PDT 1.34 28 0 Normal
09/04/2026 02 PM PDT 1.34 28 0 Normal
09/04/2026 03 PM PDT 1.34 28 0 Normal
09/04/2026 04 PM PDT 1.34 28 0 Normal
09/04/2026 05 PM PDT 1.34 28 0 Normal
09/04/2026 06 PM PDT 1.34 28 0 Normal
09/04/2026 07 PM PDT 1.34 28 0 Normal
09/04/2026 08 PM PDT 1.34 28 0 Normal
09/04/2026 09 PM PDT 1.34 28 0 Normal
09/04/2026 10 PM PDT 1.34 28 0 Normal
09/04/2026 11 PM PDT 1.34 28 0 Normal
09/05/2026 12 AM PDT 1.34 28 0 Normal
09/05/2026 01 AM PDT 1.34 28 0 Normal
09/05/2026 02 AM PDT 1.34 28 0 Normal
09/05/2026 03 AM PDT 1.34 28 0 Normal
09/05/2026 04 AM PDT 1.34 28 0 Normal
09/05/2026 05 AM PDT 1.34 28 0 Normal
09/05/2026 06 AM PDT 1.34 28 0 Normal
09/05/2026 07 AM PDT 1.34 28 0 Normal
09/05/2026 08 AM PDT 1.34 28 0 Normal
09/05/2026 09 AM PDT 1.33 27 - Normal
09/05/2026 10 AM PDT 1.33 27 0 Normal
09/05/2026 11 AM PDT 1.33 27 0 Normal
09/05/2026 12 PM PDT 1.33 27 0 Normal
09/05/2026 01 PM PDT 1.33 27 0 Normal
09/05/2026 02 PM PDT 1.33 27 0 Normal
09/05/2026 03 PM PDT 1.33 27 0 Normal
09/05/2026 04 PM PDT 1.33 27 0 Normal
09/05/2026 05 PM PDT 1.33 27 0 Normal
09/05/2026 06 PM PDT 1.33 27 0 Normal
09/05/2026 07 PM PDT 1.33 27 0 Normal
09/05/2026 08 PM PDT 1.33 27 0 Normal
09/05/2026 09 PM PDT 1.33 27 0 Normal
09/05/2026 10 PM PDT 1.33 27 0 Normal
09/05/2026 11 PM PDT 1.33 27 0 Normal
09/06/2026 12 AM PDT 1.34 28 + Normal
09/06/2026 01 AM PDT 1.35 28 + Normal
09/06/2026 02 AM PDT 1.36 29 + Normal
09/06/2026 03 AM PDT 1.38 30 + Normal
09/06/2026 04 AM PDT 1.40 32 + Normal
09/06/2026 05 AM PDT 1.43 34 + Normal
09/06/2026 06 AM PDT 1.46 36 + Normal
09/06/2026 07 AM PDT 1.49 38 + Normal
09/06/2026 08 AM PDT 1.53 41 + Normal
09/06/2026 09 AM PDT 1.57 44 + Normal
09/06/2026 10 AM PDT 1.62 48 + Normal
09/06/2026 11 AM PDT 1.67 53 + Normal
09/06/2026 12 PM PDT 1.73 58 + Normal
09/06/2026 01 PM PDT 1.81 65 + Normal
09/06/2026 02 PM PDT 1.90 74 + Normal
09/06/2026 03 PM PDT 1.99 84 + Normal
09/06/2026 04 PM PDT 2.10 96 + Normal
09/06/2026 05 PM PDT 2.21 110 + Normal
09/06/2026 06 PM PDT 2.28 118 + Normal
09/06/2026 07 PM PDT 2.31 122 + Normal
09/06/2026 08 PM PDT 2.30 121 - Normal
09/06/2026 09 PM PDT 2.25 115 - Normal
09/06/2026 10 PM PDT 2.16 103 - Normal
09/06/2026 11 PM PDT 2.02 87 - Normal
09/07/2026 12 AM PDT 1.89 73 - Normal
09/07/2026 01 AM PDT 1.76 61 - Normal
09/07/2026 02 AM PDT 1.66 52 - Normal
09/07/2026 03 AM PDT 1.58 45 - Normal
09/07/2026 04 AM PDT 1.52 40 - Normal
09/07/2026 05 AM PDT 1.49 38 - Normal
#
# NOTE 1: Stages are rounded to the nearest hundredth (.01) of a foot.
# NOTE 2: Flows are rounded to the nearest (1) cfs.
# NOTE 3: Trends are determined using hourly change in unrounded stage and flow.
# NOTE 4: Maximum Values are determined using unrounded stage and flow.
|